STARLINK-32174, 61509

Orbit data source: Space-Track

STARLINK-32174, 61509 is a payload satellite owned by SpaceX/Seattle (US) in LEO that was launched on Tue, 15 Oct 2024 UTC via an FALCON 9 launch vehicle from the Air Force Eastern Test Range (AFETR). Payload-class satellites include a variety of spacecraft equipped with specific instruments for various scientific and technological missions. These include communications satellites like Starlink; space stations such as the ISS; scientific satellites like the Hubble; Earth observation satellites from companies like Planet Labs, Umbra, and HawkEye 360; GPS; miniature CubeSats for education and research; and military/defense satellites.

Loading next visibility...
Identifier
61509, 2024-183A
Orbit
LEO
Country
Flag of USUS
Related business
Manufacturer
SpaceX/Seattle
Mission
Operational Commercial Communications
Bus & Motor
STARLINK V2M, Unknown motor
Mass
730 kg wet, ~700 kg dry
Launch date (UTC)
2024-10-15 (1 year ago)
Launch vehicle
FALCON 9
Launch site
Air Force Eastern Test Range (AFETR)
Object type
Payload
Rocket body
Debris
Shape & HBR
Box + 2 Pan, 17.7 m
Radar Cross Section
33.884 m², Large (>1 m²)

Expand to show TLE details & history
Last TLE update: 13 hours ago

TLE from 13 hours ago
0 STARLINK-32174
1 61509U 24183A   25346.82703708 -.00000440  00000-0 -27371-5 0  9999
2 61509  53.1600 173.1160 0001173 112.9766 247.1359 15.30185698 66538
Epoch: 2025-12-12T19:50Z
TLE epoch observation values (Epoch: 2025-12-12T19:50:56.003Z)
Latitude
-0°
Longitude
153.61958°
Altitude
476.47 km
Speed
7.629 km/s
True Right ascension
11h 32m 27s
True Declination
0° 00' 00"
Sunlit
Object was in daylight at epoch
Visualization orbit readout
Latitude
Unknown
Longitude
Unknown
Altitude
Unknown
Speed
Unknown
Apparent Right ascension
Unknown
Apparent Declination
Unknown
Sunlit
N/A
Visualization observer readout
Local Sidereal Time
07:35:04
Azimuth
Unknown
Elevation
Unknown
Doppler factor
Unknown
Orbital elements
Apogee altitude
476.318 km
Perigee altitude
474.71 km
Semi-major axis
6,853.651 km
Eccentricity
0.00012
Inclination
53.16°
RAAN
173.116°
Arg. of periapsis
112.9766°
True anomaly
247.12352°
Mean anomaly
247.1359°
Eccentric anomaly
247.12971°
Mean motion
3.82525 °/min
Orbital period
94.11 mins
BSTAR
-0.0000027371
Loading maneuver chart data...
Computing Atmospheric mass density...
Loading historical data...
Loading historical data...
Loading historical data...
Loading historical data...
Loading historical data...
Loading historical data...
Loading historical data...

Documentation

Showing up to 5 results
|